owner,sensor,date,latitude,longitude,vertical_datum,sea_water_temperature,qcFlag 
TCOON,ioos:station:TCOON:031:1,2011-07-01T00:00:00Z,28.4073,-96.7122,0.0,31.3,2 
TCOON,ioos:station:TCOON:031:1,2011-07-01T01:00:00Z,28.4073,-96.7122,0.0,31.2,2 
TCOON,ioos:station:TCOON:031:1,2011-07-01T03:00:00Z,28.4073,-96.7122,0.0,30.9,2 
TCOON,ioos:station:TCOON:031:1,2011-07-01T04:00:00Z,28.4073,-96.7122,0.0,30.7,2 
TCOON,ioos:station:TCOON:031:1,2011-07-01T05:00:00Z,28.4073,-96.7122,0.0,30.6,2 
TCOON,ioos:station:TCOON:031:1,2011-07-01T06:00:00Z,28.4073,-96.7122,0.0,30.4,2 
TCOON,ioos:station:TCOON:031:1,2011-07-01T07:00:00Z,28.4073,-96.7122,0.0,30.2,2 
TCOON,ioos:station:TCOON:031:1,2011-07-01T08:00:00Z,28.4073,-96.7122,0.0,30.0,2 
TCOON,ioos:station:TCOON:031:1,2011-07-01T09:00:00Z,28.4073,-96.7122,0.0,29.9,2 
TCOON,ioos:station:TCOON:031:1,2011-07-01T10:00:00Z,28.4073,-96.7122,0.0,29.9,2 
TCOON,ioos:station:TCOON:031:1,2011-07-01T11:00:00Z,28.4073,-96.7122,0.0,29.7,2 
TCOON,ioos:station:TCOON:031:1,2011-07-01T12:00:00Z,28.4073,-96.7122,0.0,29.5,2 
TCOON,ioos:station:TCOON:031:1,2011-07-01T13:00:00Z,28.4073,-96.7122,0.0,29.3,2 
TCOON,ioos:station:TCOON:031:1,2011-07-01T14:00:00Z,28.4073,-96.7122,0.0,29.4,2 
TCOON,ioos:station:TCOON:031:1,2011-07-01T15:00:00Z,28.4073,-96.7122,0.0,29.5,2 
TCOON,ioos:station:TCOON:031:1,2011-07-01T16:00:00Z,28.4073,-96.7122,0.0,29.8,2 
TCOON,ioos:station:TCOON:031:1,2011-07-01T17:00:00Z,28.4073,-96.7122,0.0,30.0,2 
TCOON,ioos:station:TCOON:031:1,2011-07-01T18:00:00Z,28.4073,-96.7122,0.0,30.3,2 
TCOON,ioos:station:TCOON:031:1,2011-07-01T19:00:00Z,28.4073,-96.7122,0.0,30.6,2 
TCOON,ioos:station:TCOON:031:1,2011-07-01T20:00:00Z,28.4073,-96.7122,0.0,30.8,2 
TCOON,ioos:station:TCOON:031:1,2011-07-01T21:00:00Z,28.4073,-96.7122,0.0,31.1,2 
TCOON,ioos:station:TCOON:031:1,2011-07-01T22:00:00Z,28.4073,-96.7122,0.0,31.4,2 
TCOON,ioos:station:TCOON:031:1,2011-07-01T23:00:00Z,28.4073,-96.7122,0.0,31.6,2 
TCOON,ioos:station:TCOON:031:1,2011-07-02T00:00:00Z,28.4073,-96.7122,0.0,31.6,2 
TCOON,ioos:station:TCOON:031:1,2011-07-02T01:00:00Z,28.4073,-96.7122,0.0,31.5,2 
TCOON,ioos:station:TCOON:031:1,2011-07-02T02:00:00Z,28.4073,-96.7122,0.0,31.4,2 
TCOON,ioos:station:TCOON:031:1,2011-07-02T03:00:00Z,28.4073,-96.7122,0.0,31.2,2 
TCOON,ioos:station:TCOON:031:1,2011-07-02T04:00:00Z,28.4073,-96.7122,0.0,31.0,2 
TCOON,ioos:station:TCOON:031:1,2011-07-02T05:00:00Z,28.4073,-96.7122,0.0,30.9,2 
TCOON,ioos:station:TCOON:031:1,2011-07-02T06:00:00Z,28.4073,-96.7122,0.0,30.7,2 
TCOON,ioos:station:TCOON:031:1,2011-07-02T07:00:00Z,28.4073,-96.7122,0.0,30.6,2 
TCOON,ioos:station:TCOON:031:1,2011-07-02T08:00:00Z,28.4073,-96.7122,0.0,30.4,2 
TCOON,ioos:station:TCOON:031:1,2011-07-02T09:00:00Z,28.4073,-96.7122,0.0,30.2,2 
TCOON,ioos:station:TCOON:031:1,2011-07-02T10:00:00Z,28.4073,-96.7122,0.0,29.9,2 
TCOON,ioos:station:TCOON:031:1,2011-07-02T11:00:00Z,28.4073,-96.7122,0.0,29.7,2 
TCOON,ioos:station:TCOON:031:1,2011-07-02T12:00:00Z,28.4073,-96.7122,0.0,29.5,2 
TCOON,ioos:station:TCOON:031:1,2011-07-02T13:00:00Z,28.4073,-96.7122,0.0,29.4,2 
TCOON,ioos:station:TCOON:031:1,2011-07-02T14:00:00Z,28.4073,-96.7122,0.0,29.4,2 
TCOON,ioos:station:TCOON:031:1,2011-07-02T15:00:00Z,28.4073,-96.7122,0.0,29.6,2 
TCOON,ioos:station:TCOON:031:1,2011-07-02T16:00:00Z,28.4073,-96.7122,0.0,29.8,2 
TCOON,ioos:station:TCOON:031:1,2011-07-02T17:00:00Z,28.4073,-96.7122,0.0,30.1,2 
TCOON,ioos:station:TCOON:031:1,2011-07-02T18:00:00Z,28.4073,-96.7122,0.0,30.7,2 
TCOON,ioos:station:TCOON:031:1,2011-07-02T19:00:00Z,28.4073,-96.7122,0.0,31.3,2 
TCOON,ioos:station:TCOON:031:1,2011-07-02T20:00:00Z,28.4073,-96.7122,0.0,31.7,2 
TCOON,ioos:station:TCOON:031:1,2011-07-02T21:00:00Z,28.4073,-96.7122,0.0,32.0,2 
TCOON,ioos:station:TCOON:031:1,2011-07-02T22:00:00Z,28.4073,-96.7122,0.0,32.2,2 
TCOON,ioos:station:TCOON:031:1,2011-07-02T23:00:00Z,28.4073,-96.7122,0.0,32.3,2 
TCOON,ioos:station:TCOON:031:1,2011-07-03T00:00:00Z,28.4073,-96.7122,0.0,32.2,2 
TCOON,ioos:station:TCOON:031:1,2011-07-03T01:00:00Z,28.4073,-96.7122,0.0,32.0,2 
TCOON,ioos:station:TCOON:031:1,2011-07-03T02:00:00Z,28.4073,-96.7122,0.0,31.8,2 
TCOON,ioos:station:TCOON:031:1,2011-07-03T03:00:00Z,28.4073,-96.7122,0.0,31.4,2 
TCOON,ioos:station:TCOON:031:1,2011-07-03T04:00:00Z,28.4073,-96.7122,0.0,31.2,2 
TCOON,ioos:station:TCOON:031:1,2011-07-03T05:00:00Z,28.4073,-96.7122,0.0,31.0,2 
TCOON,ioos:station:TCOON:031:1,2011-07-03T06:00:00Z,28.4073,-96.7122,0.0,30.7,2 
TCOON,ioos:station:TCOON:031:1,2011-07-03T07:00:00Z,28.4073,-96.7122,0.0,30.4,2 
TCOON,ioos:station:TCOON:031:1,2011-07-03T08:00:00Z,28.4073,-96.7122,0.0,30.2,2 
TCOON,ioos:station:TCOON:031:1,2011-07-03T09:00:00Z,28.4073,-96.7122,0.0,29.6,2 
TCOON,ioos:station:TCOON:031:1,2011-07-03T10:00:00Z,28.4073,-96.7122,0.0,29.3,2 
TCOON,ioos:station:TCOON:031:1,2011-07-03T11:00:00Z,28.4073,-96.7122,0.0,29.1,2 
TCOON,ioos:station:TCOON:031:1,2011-07-03T12:00:00Z,28.4073,-96.7122,0.0,29.0,2 
TCOON,ioos:station:TCOON:031:1,2011-07-03T13:00:00Z,28.4073,-96.7122,0.0,28.9,2 
TCOON,ioos:station:TCOON:031:1,2011-07-03T14:00:00Z,28.4073,-96.7122,0.0,29.1,2 
TCOON,ioos:station:TCOON:031:1,2011-07-03T15:00:00Z,28.4073,-96.7122,0.0,29.4,2 
TCOON,ioos:station:TCOON:031:1,2011-07-03T16:00:00Z,28.4073,-96.7122,0.0,30.0,2 
TCOON,ioos:station:TCOON:031:1,2011-07-03T17:00:00Z,28.4073,-96.7122,0.0,30.7,2 
TCOON,ioos:station:TCOON:031:1,2011-07-03T18:00:00Z,28.4073,-96.7122,0.0,31.5,2 
TCOON,ioos:station:TCOON:031:1,2011-07-03T19:00:00Z,28.4073,-96.7122,0.0,32.1,2 
TCOON,ioos:station:TCOON:031:1,2011-07-03T20:00:00Z,28.4073,-96.7122,0.0,32.7,2 
TCOON,ioos:station:TCOON:031:1,2011-07-03T21:00:00Z,28.4073,-96.7122,0.0,33.3,2 
TCOON,ioos:station:TCOON:031:1,2011-07-03T22:00:00Z,28.4073,-96.7122,0.0,33.7,2 
TCOON,ioos:station:TCOON:031:1,2011-07-03T23:00:00Z,28.4073,-96.7122,0.0,33.8,2 
TCOON,ioos:station:TCOON:031:1,2011-07-04T00:00:00Z,28.4073,-96.7122,0.0,33.3,2 
TCOON,ioos:station:TCOON:031:1,2011-07-04T01:00:00Z,28.4073,-96.7122,0.0,32.9,2 
TCOON,ioos:station:TCOON:031:1,2011-07-04T02:00:00Z,28.4073,-96.7122,0.0,32.6,2 
TCOON,ioos:station:TCOON:031:1,2011-07-04T03:00:00Z,28.4073,-96.7122,0.0,32.2,2 
TCOON,ioos:station:TCOON:031:1,2011-07-04T04:00:00Z,28.4073,-96.7122,0.0,31.9,2 
TCOON,ioos:station:TCOON:031:1,2011-07-04T05:00:00Z,28.4073,-96.7122,0.0,31.5,2 
TCOON,ioos:station:TCOON:031:1,2011-07-04T06:00:00Z,28.4073,-96.7122,0.0,31.2,2 
TCOON,ioos:station:TCOON:031:1,2011-07-04T07:00:00Z,28.4073,-96.7122,0.0,30.9,2 
TCOON,ioos:station:TCOON:031:1,2011-07-04T08:00:00Z,28.4073,-96.7122,0.0,30.6,2 
TCOON,ioos:station:TCOON:031:1,2011-07-04T09:00:00Z,28.4073,-96.7122,0.0,30.3,2 
TCOON,ioos:station:TCOON:031:1,2011-07-04T10:00:00Z,28.4073,-96.7122,0.0,30.0,2 
TCOON,ioos:station:TCOON:031:1,2011-07-04T11:00:00Z,28.4073,-96.7122,0.0,29.8,2 
TCOON,ioos:station:TCOON:031:1,2011-07-04T12:00:00Z,28.4073,-96.7122,0.0,29.6,2 
TCOON,ioos:station:TCOON:031:1,2011-07-04T13:00:00Z,28.4073,-96.7122,0.0,29.5,2 
TCOON,ioos:station:TCOON:031:1,2011-07-04T14:00:00Z,28.4073,-96.7122,0.0,29.4,2 
TCOON,ioos:station:TCOON:031:1,2011-07-04T15:00:00Z,28.4073,-96.7122,0.0,29.5,2 
TCOON,ioos:station:TCOON:031:1,2011-07-04T16:00:00Z,28.4073,-96.7122,0.0,29.9,2 
TCOON,ioos:station:TCOON:031:1,2011-07-04T17:00:00Z,28.4073,-96.7122,0.0,30.5,2 
TCOON,ioos:station:TCOON:031:1,2011-07-04T18:00:00Z,28.4073,-96.7122,0.0,31.0,2 
TCOON,ioos:station:TCOON:031:1,2011-07-04T19:00:00Z,28.4073,-96.7122,0.0,31.5,2 
TCOON,ioos:station:TCOON:031:1,2011-07-04T20:00:00Z,28.4073,-96.7122,0.0,32.0,2 
TCOON,ioos:station:TCOON:031:1,2011-07-04T21:00:00Z,28.4073,-96.7122,0.0,32.3,2 
TCOON,ioos:station:TCOON:031:1,2011-07-04T22:00:00Z,28.4073,-96.7122,0.0,32.5,2 
TCOON,ioos:station:TCOON:031:1,2011-07-04T23:00:00Z,28.4073,-96.7122,0.0,32.5,2 
TCOON,ioos:station:TCOON:031:1,2011-07-05T00:00:00Z,28.4073,-96.7122,0.0,32.4,2 
TCOON,ioos:station:TCOON:031:1,2011-07-05T01:00:00Z,28.4073,-96.7122,0.0,32.2,2 
TCOON,ioos:station:TCOON:031:1,2011-07-05T02:00:00Z,28.4073,-96.7122,0.0,31.9,2 
TCOON,ioos:station:TCOON:031:1,2011-07-05T03:00:00Z,28.4073,-96.7122,0.0,31.6,2 
TCOON,ioos:station:TCOON:031:1,2011-07-05T04:00:00Z,28.4073,-96.7122,0.0,31.3,2 
TCOON,ioos:station:TCOON:031:1,2011-07-05T05:00:00Z,28.4073,-96.7122,0.0,31.0,2 
TCOON,ioos:station:TCOON:031:1,2011-07-05T06:00:00Z,28.4073,-96.7122,0.0,30.8,2 
TCOON,ioos:station:TCOON:031:1,2011-07-05T07:00:00Z,28.4073,-96.7122,0.0,30.5,2 
TCOON,ioos:station:TCOON:031:1,2011-07-05T08:00:00Z,28.4073,-96.7122,0.0,30.2,2 
TCOON,ioos:station:TCOON:031:1,2011-07-05T09:00:00Z,28.4073,-96.7122,0.0,29.9,2 
TCOON,ioos:station:TCOON:031:1,2011-07-05T10:00:00Z,28.4073,-96.7122,0.0,29.7,2 
TCOON,ioos:station:TCOON:031:1,2011-07-05T11:00:00Z,28.4073,-96.7122,0.0,29.5,2 
TCOON,ioos:station:TCOON:031:1,2011-07-05T12:00:00Z,28.4073,-96.7122,0.0,29.2,2 
TCOON,ioos:station:TCOON:031:1,2011-07-05T13:00:00Z,28.4073,-96.7122,0.0,29.0,2 
TCOON,ioos:station:TCOON:031:1,2011-07-05T14:00:00Z,28.4073,-96.7122,0.0,28.9,2 
TCOON,ioos:station:TCOON:031:1,2011-07-05T15:00:00Z,28.4073,-96.7122,0.0,29.1,2 
TCOON,ioos:station:TCOON:031:1,2011-07-05T16:00:00Z,28.4073,-96.7122,0.0,29.7,2 
TCOON,ioos:station:TCOON:031:1,2011-07-05T17:00:00Z,28.4073,-96.7122,0.0,30.5,2 
TCOON,ioos:station:TCOON:031:1,2011-07-05T18:00:00Z,28.4073,-96.7122,0.0,31.4,2 
TCOON,ioos:station:TCOON:031:1,2011-07-05T19:00:00Z,28.4073,-96.7122,0.0,32.0,2 
TCOON,ioos:station:TCOON:031:1,2011-07-05T20:00:00Z,28.4073,-96.7122,0.0,32.4,2 
TCOON,ioos:station:TCOON:031:1,2011-07-05T21:00:00Z,28.4073,-96.7122,0.0,32.7,2 
TCOON,ioos:station:TCOON:031:1,2011-07-05T22:00:00Z,28.4073,-96.7122,0.0,33.0,2 
TCOON,ioos:station:TCOON:031:1,2011-07-05T23:00:00Z,28.4073,-96.7122,0.0,33.2,2 
TCOON,ioos:station:TCOON:031:1,2011-07-06T00:00:00Z,28.4073,-96.7122,0.0,32.9,2 
TCOON,ioos:station:TCOON:031:1,2011-07-06T01:00:00Z,28.4073,-96.7122,0.0,32.5,2 
TCOON,ioos:station:TCOON:031:1,2011-07-06T02:00:00Z,28.4073,-96.7122,0.0,32.2,2 
TCOON,ioos:station:TCOON:031:1,2011-07-06T03:00:00Z,28.4073,-96.7122,0.0,31.9,2 
TCOON,ioos:station:TCOON:031:1,2011-07-06T04:00:00Z,28.4073,-96.7122,0.0,31.6,2 
TCOON,ioos:station:TCOON:031:1,2011-07-06T05:00:00Z,28.4073,-96.7122,0.0,31.3,2 
TCOON,ioos:station:TCOON:031:1,2011-07-06T06:00:00Z,28.4073,-96.7122,0.0,31.2,2 
TCOON,ioos:station:TCOON:031:1,2011-07-06T07:00:00Z,28.4073,-96.7122,0.0,31.0,2 
TCOON,ioos:station:TCOON:031:1,2011-07-06T08:00:00Z,28.4073,-96.7122,0.0,30.7,2 
TCOON,ioos:station:TCOON:031:1,2011-07-06T09:00:00Z,28.4073,-96.7122,0.0,30.4,2 
TCOON,ioos:station:TCOON:031:1,2011-07-06T10:00:00Z,28.4073,-96.7122,0.0,30.2,2 
TCOON,ioos:station:TCOON:031:1,2011-07-06T11:00:00Z,28.4073,-96.7122,0.0,29.9,2 
TCOON,ioos:station:TCOON:031:1,2011-07-06T12:00:00Z,28.4073,-96.7122,0.0,29.7,2 
TCOON,ioos:station:TCOON:031:1,2011-07-06T13:00:00Z,28.4073,-96.7122,0.0,29.6,2 
TCOON,ioos:station:TCOON:031:1,2011-07-06T14:00:00Z,28.4073,-96.7122,0.0,29.6,2 
TCOON,ioos:station:TCOON:031:1,2011-07-06T15:00:00Z,28.4073,-96.7122,0.0,29.7,2 
TCOON,ioos:station:TCOON:031:1,2011-07-06T16:00:00Z,28.4073,-96.7122,0.0,30.2,2 
 
DISCLAIMER: The Gulf of Mexico Coastal and Ocean Observing (GCOOS) Data Portal aggregates data from the regional data providers for the convenience of all data users. Data published on this website should not be used for navigation or certain other uses as we cannot guarantee data accuracy or availability. The data and delivery services are provided 'as is' without warranty of any kind. Data Source: Gulf of Mexico Coastal Ocean Observing System Data Portal (http://data.gcoos.org/) 
